Terminal Aerodrome Forecast
Issued by NWS

Home | Current Version | Previous Version | Text Only | Print | Product List | Glossary On
Versions: 1 2 3 4 5 6 7 8 9 10 11 12 13
000
FTPA31 PHFO 310500 RRA
TAFMKK
TAF
PHMK 310541Z 3106/0106 04012G22KT P6SM FEW025 SCT045
     FM312000 04018G30KT P6SM FEW025 SCT045=

USA.gov is the U.S. government's official web portal to all federal, state and local government web resources and services.